Time,TemperatureF,DewpointF,PressureIn,WindDirection,WindDirectionDegrees,WindSpeedMPH,WindSpeedGustMPH,Humidity,HourlyPrecipIn,Conditions,Clouds,dailyrainin,SoftwareType,DateUTC
2013-01-31 00:01:00,45.9,43.7,30.99,SW,225,0.0,0.0,92,0.00,,,0.00,WUHU216HW,2013-01-31 08:01:00,
2013-01-31 00:06:00,45.7,43.6,30.99,SW,225,0.4,0.7,92,0.00,,,0.00,WUHU216HW,2013-01-31 08:06:00,
2013-01-31 00:12:00,45.7,43.6,30.99,SW,225,0.0,0.7,92,0.00,,,0.00,WUHU216HW,2013-01-31 08:12:00,
2013-01-31 00:17:00,45.7,43.3,30.99,SW,225,0.0,0.4,91,0.00,,,0.00,WUHU216HW,2013-01-31 08:17:00,
2013-01-31 00:21:00,45.7,43.3,30.99,SW,225,0.0,0.4,91,0.00,,,0.00,WUHU216HW,2013-01-31 08:21:00,
2013-01-31 00:26:00,45.7,43.3,30.99,SW,225,0.2,0.4,91,0.00,,,0.00,WUHU216HW,2013-01-31 08:26:00,
2013-01-31 00:32:00,45.5,43.1,30.99,SW,225,0.0,0.7,91,0.00,,,0.00,WUHU216HW,2013-01-31 08:32:00,
2013-01-31 00:37:00,45.5,43.1,30.99,SW,225,0.0,0.7,91,0.00,,,0.00,WUHU216HW,2013-01-31 08:37:00,
2013-01-31 00:42:00,45.7,43.3,30.99,SW,225,0.4,0.7,91,0.00,,,0.00,WUHU216HW,2013-01-31 08:42:00,
2013-01-31 00:47:00,45.7,43.3,30.99,SW,225,0.0,0.7,91,0.00,,,0.00,WUHU216HW,2013-01-31 08:47:00,
2013-01-31 00:52:00,45.7,43.3,30.99,SW,225,0.0,0.2,91,0.00,,,0.00,WUHU216HW,2013-01-31 08:52:00,
2013-01-31 00:57:00,45.7,43.3,30.98,SW,225,0.0,0.2,91,0.00,,,0.00,WUHU216HW,2013-01-31 08:57:00,
2013-01-31 01:02:00,45.5,43.1,30.99,SW,225,0.0,0.0,91,0.00,,,0.00,WUHU216HW,2013-01-31 09:02:00,
2013-01-31 01:07:00,45.5,43.1,30.98,SW,225,0.0,0.0,91,0.00,,,0.00,WUHU216HW,2013-01-31 09:07:00,
2013-01-31 01:11:00,45.4,42.9,30.98,SW,225,0.0,0.0,91,0.00,,,0.00,WUHU216HW,2013-01-31 09:11:00,
2013-01-31 01:17:00,45.4,42.9,30.98,SW,225,0.0,0.0,91,0.00,,,0.00,WUHU216HW,2013-01-31 09:17:00,
2013-01-31 01:22:00,45.0,42.6,30.98,SW,225,0.0,0.0,91,0.00,,,0.00,WUHU216HW,2013-01-31 09:22:00,
2013-01-31 01:26:00,45.0,42.6,30.98,WSW,248,0.0,0.4,91,0.00,,,0.00,WUHU216HW,2013-01-31 09:26:00,
2013-01-31 01:32:00,44.8,42.4,30.98,WSW,248,0.0,0.4,91,0.00,,,0.00,WUHU216HW,2013-01-31 09:32:00,
2013-01-31 01:37:00,44.8,42.4,30.98,WSW,248,0.0,0.0,91,0.00,,,0.00,WUHU216HW,2013-01-31 09:37:00,
2013-01-31 01:42:00,44.8,42.4,30.98,WSW,248,0.0,0.0,91,0.00,,,0.00,WUHU216HW,2013-01-31 09:42:00,
2013-01-31 01:47:00,44.8,42.7,30.98,WSW,248,0.0,0.0,92,0.00,,,0.00,WUHU216HW,2013-01-31 09:47:00,
2013-01-31 01:52:00,44.6,42.2,30.98,WSW,248,0.0,0.0,91,0.00,,,0.00,WUHU216HW,2013-01-31 09:52:00,
2013-01-31 01:57:00,44.6,42.2,30.98,WSW,248,0.0,0.0,91,0.00,,,0.00,WUHU216HW,2013-01-31 09:57:00,
2013-01-31 02:02:00,44.6,42.5,30.99,WSW,248,0.0,0.0,92,0.00,,,0.00,WUHU216HW,2013-01-31 10:02:00,
2013-01-31 02:06:00,44.6,42.5,30.99,WSW,248,0.0,0.0,92,0.00,,,0.00,WUHU216HW,2013-01-31 10:06:00,
2013-01-31 02:12:00,44.6,42.5,30.99,WSW,248,0.0,0.0,92,0.00,,,0.00,WUHU216HW,2013-01-31 10:12:00,
2013-01-31 02:17:00,44.6,42.5,30.99,WSW,248,0.0,0.0,92,0.00,,,0.00,WUHU216HW,2013-01-31 10:17:00,
2013-01-31 02:22:00,44.8,42.7,30.99,WSW,248,0.0,0.0,92,0.00,,,0.00,WUHU216HW,2013-01-31 10:22:00,
2013-01-31 02:27:00,44.8,42.7,30.99,WSW,248,0.0,0.0,92,0.00,,,0.00,WUHU216HW,2013-01-31 10:27:00,
2013-01-31 02:32:00,44.8,42.7,30.99,WSW,248,0.0,0.0,92,0.00,,,0.00,WUHU216HW,2013-01-31 10:32:00,
2013-01-31 02:37:00,44.8,42.7,30.99,WSW,248,0.0,0.4,92,0.00,,,0.00,WUHU216HW,2013-01-31 10:37:00,
2013-01-31 02:42:00,44.8,42.7,30.99,WSW,248,0.0,0.4,92,0.00,,,0.00,WUHU216HW,2013-01-31 10:42:00,
2013-01-31 02:47:00,44.8,42.7,30.99,WSW,248,0.0,0.0,92,0.00,,,0.00,WUHU216HW,2013-01-31 10:47:00,
2013-01-31 02:51:00,44.8,42.7,30.98,WSW,248,0.0,0.0,92,0.00,,,0.00,WUHU216HW,2013-01-31 10:51:00,
2013-01-31 02:57:00,45.0,42.8,30.98,WSW,248,0.0,0.0,92,0.00,,,0.00,WUHU216HW,2013-01-31 10:57:00,
2013-01-31 03:01:00,45.0,42.8,30.98,WSW,248,0.0,0.0,92,0.00,,,0.00,WUHU216HW,2013-01-31 11:01:00,
2013-01-31 03:07:00,45.0,42.8,30.98,WSW,248,0.0,0.0,92,0.00,,,0.00,WUHU216HW,2013-01-31 11:07:00,
2013-01-31 03:11:00,45.0,42.8,30.98,WSW,248,0.0,0.0,92,0.00,,,0.00,WUHU216HW,2013-01-31 11:11:00,
2013-01-31 03:17:00,45.0,42.8,30.97,WSW,248,0.0,0.0,92,0.00,,,0.00,WUHU216HW,2013-01-31 11:17:00,
2013-01-31 03:21:00,45.0,42.8,30.97,WSW,248,0.0,0.0,92,0.00,,,0.00,WUHU216HW,2013-01-31 11:21:00,
2013-01-31 03:26:00,45.0,42.8,30.97,WSW,248,0.0,0.0,92,0.00,,,0.00,WUHU216HW,2013-01-31 11:26:00,
2013-01-31 03:32:00,45.0,42.8,30.97,WSW,248,0.0,0.0,92,0.00,,,0.00,WUHU216HW,2013-01-31 11:32:00,
2013-01-31 03:37:00,45.0,42.8,30.97,WSW,248,0.0,0.0,92,0.00,,,0.00,WUHU216HW,2013-01-31 11:37:00,
2013-01-31 03:42:00,45.0,42.8,30.97,SW,225,0.7,0.7,92,0.00,,,0.00,WUHU216HW,2013-01-31 11:42:00,
2013-01-31 03:47:00,45.2,43.0,30.96,WNW,293,1.1,1.6,92,0.00,,,0.00,WUHU216HW,2013-01-31 11:47:00,
2013-01-31 03:52:00,45.2,43.3,30.97,West,270,0.4,1.6,93,0.00,,,0.00,WUHU216HW,2013-01-31 11:52:00,
2013-01-31 03:57:00,45.2,43.3,30.97,West,270,0.7,1.6,93,0.00,,,0.00,WUHU216HW,2013-01-31 11:57:00,
2013-01-31 04:02:00,45.2,43.3,30.97,WSW,248,0.0,1.1,93,0.00,,,0.00,WUHU216HW,2013-01-31 12:02:00,
2013-01-31 04:07:00,45.2,43.3,30.96,West,270,0.0,1.1,93,0.00,,,0.00,WUHU216HW,2013-01-31 12:07:00,
2013-01-31 04:12:00,45.2,43.3,30.96,West,270,0.0,0.2,93,0.00,,,0.00,WUHU216HW,2013-01-31 12:12:00,
2013-01-31 04:17:00,45.2,43.3,30.96,West,270,0.0,0.2,93,0.00,,,0.00,WUHU216HW,2013-01-31 12:17:00,
2013-01-31 04:22:00,45.2,43.3,30.97,West,270,0.0,0.0,93,0.00,,,0.00,WUHU216HW,2013-01-31 12:22:00,
2013-01-31 04:27:00,45.2,43.3,30.97,West,270,0.0,0.0,93,0.00,,,0.00,WUHU216HW,2013-01-31 12:27:00,
2013-01-31 04:32:00,45.2,43.3,30.97,West,270,0.0,0.4,93,0.00,,,0.00,WUHU216HW,2013-01-31 12:32:00,
2013-01-31 04:37:00,45.2,43.3,30.97,West,270,0.0,0.4,93,0.00,,,0.00,WUHU216HW,2013-01-31 12:37:00,
2013-01-31 04:42:00,45.2,43.3,30.97,West,270,0.0,0.0,93,0.00,,,0.00,WUHU216HW,2013-01-31 12:42:00,
2013-01-31 04:47:00,45.2,43.3,30.96,West,270,0.0,0.0,93,0.00,,,0.00,WUHU216HW,2013-01-31 12:47:00,
2013-01-31 04:52:00,45.2,43.3,30.96,West,270,0.0,0.0,93,0.00,,,0.00,WUHU216HW,2013-01-31 12:52:00,
2013-01-31 04:57:00,45.2,43.3,30.96,West,270,0.0,0.0,93,0.00,,,0.00,WUHU216HW,2013-01-31 12:57:00,
2013-01-31 05:02:00,45.2,43.3,30.96,West,270,0.0,0.0,93,0.00,,,0.00,WUHU216HW,2013-01-31 13:02:00,
2013-01-31 05:07:00,45.2,43.3,30.96,West,270,0.0,0.0,93,0.00,,,0.00,WUHU216HW,2013-01-31 13:07:00,
2013-01-31 05:12:00,45.2,43.3,30.97,West,270,0.0,0.0,93,0.00,,,0.00,WUHU216HW,2013-01-31 13:12:00,
2013-01-31 05:17:00,45.4,43.5,30.96,West,270,0.0,0.0,93,0.00,,,0.00,WUHU216HW,2013-01-31 13:17:00,
2013-01-31 05:22:00,45.2,43.3,30.96,West,270,0.0,0.0,93,0.00,,,0.00,WUHU216HW,2013-01-31 13:22:00,
2013-01-31 05:27:00,45.4,43.5,30.96,West,270,0.0,0.0,93,0.00,,,0.00,WUHU216HW,2013-01-31 13:27:00,
2013-01-31 05:32:00,45.4,43.5,30.96,West,270,0.0,0.0,93,0.00,,,0.00,WUHU216HW,2013-01-31 13:32:00,
2013-01-31 05:37:00,45.2,43.3,30.97,West,270,0.0,0.0,93,0.00,,,0.00,WUHU216HW,2013-01-31 13:37:00,
2013-01-31 05:42:00,45.2,43.3,30.96,West,270,0.0,0.0,93,0.00,,,0.00,WUHU216HW,2013-01-31 13:42:00,
2013-01-31 05:47:00,45.2,43.3,30.96,West,270,0.0,0.0,93,0.00,,,0.00,WUHU216HW,2013-01-31 13:47:00,
2013-01-31 05:52:00,45.2,43.3,30.96,West,270,0.0,0.0,93,0.00,,,0.00,WUHU216HW,2013-01-31 13:52:00,
2013-01-31 05:57:00,45.0,43.1,30.95,West,270,0.4,0.4,93,0.00,,,0.00,WUHU216HW,2013-01-31 13:57:00,
2013-01-31 06:02:00,45.0,43.1,30.95,West,270,0.0,0.4,93,0.00,,,0.00,WUHU216HW,2013-01-31 14:02:00,
2013-01-31 06:07:00,45.0,43.1,30.96,West,270,0.0,0.0,93,0.00,,,0.00,WUHU216HW,2013-01-31 14:07:00,
2013-01-31 06:12:00,45.0,43.1,30.96,West,270,0.0,0.4,93,0.00,,,0.00,WUHU216HW,2013-01-31 14:12:00,
2013-01-31 06:17:00,45.0,43.1,30.96,West,270,0.0,0.4,93,0.00,,,0.00,WUHU216HW,2013-01-31 14:17:00,
2013-01-31 06:22:00,44.8,42.7,30.96,West,270,0.0,0.0,92,0.00,,,0.00,WUHU216HW,2013-01-31 14:22:00,
2013-01-31 06:27:00,44.6,42.5,30.96,West,270,0.0,0.0,92,0.00,,,0.00,WUHU216HW,2013-01-31 14:27:00,
2013-01-31 06:32:00,44.3,42.1,30.95,West,270,0.0,0.0,92,0.00,,,0.00,WUHU216HW,2013-01-31 14:32:00,
2013-01-31 06:37:00,44.1,41.9,30.96,West,270,0.0,0.0,92,0.00,,,0.00,WUHU216HW,2013-01-31 14:37:00,
2013-01-31 06:42:00,43.9,41.8,30.95,West,270,0.0,0.0,92,0.00,,,0.00,WUHU216HW,2013-01-31 14:42:00,
2013-01-31 06:47:00,43.6,41.4,30.95,West,270,0.0,0.0,92,0.00,,,0.00,WUHU216HW,2013-01-31 14:47:00,
2013-01-31 06:52:00,43.6,41.4,30.96,West,270,0.0,0.0,92,0.00,,,0.00,WUHU216HW,2013-01-31 14:52:00,
2013-01-31 06:57:00,43.4,41.2,30.96,West,270,0.0,0.0,92,0.00,,,0.00,WUHU216HW,2013-01-31 14:57:00,
2013-01-31 07:02:00,43.4,41.2,30.96,WNW,293,0.0,0.4,92,0.00,,,0.00,WUHU216HW,2013-01-31 15:02:00,
2013-01-31 07:07:00,43.2,41.0,30.95,WNW,293,0.0,0.4,92,0.00,,,0.00,WUHU216HW,2013-01-31 15:07:00,
2013-01-31 07:12:00,43.2,41.3,30.95,WNW,293,0.0,0.0,93,0.00,,,0.00,WUHU216HW,2013-01-31 15:12:00,
2013-01-31 07:17:00,43.2,41.3,30.95,WNW,293,0.0,0.0,93,0.00,,,0.00,WUHU216HW,2013-01-31 15:17:00,
2013-01-31 07:22:00,43.2,41.3,30.95,WNW,293,0.0,0.0,93,0.00,,,0.00,WUHU216HW,2013-01-31 15:22:00,
2013-01-31 07:27:00,43.2,41.3,30.96,WNW,293,0.0,0.0,93,0.00,,,0.00,WUHU216HW,2013-01-31 15:27:00,
2013-01-31 07:32:00,43.2,41.3,30.96,WNW,293,0.0,0.0,93,0.00,,,0.00,WUHU216HW,2013-01-31 15:32:00,
2013-01-31 07:37:00,43.2,41.3,30.96,WNW,293,0.0,0.0,93,0.00,,,0.00,WUHU216HW,2013-01-31 15:37:00,
2013-01-31 07:42:00,43.2,41.3,30.96,WNW,293,0.0,0.0,93,0.00,,,0.00,WUHU216HW,2013-01-31 15:42:00,
2013-01-31 07:47:00,43.2,41.3,30.95,WNW,293,0.0,0.0,93,0.00,,,0.00,WUHU216HW,2013-01-31 15:47:00,
2013-01-31 07:52:00,43.2,41.3,30.96,WNW,293,0.0,0.0,93,0.00,,,0.00,WUHU216HW,2013-01-31 15:52:00,
2013-01-31 07:57:00,43.2,41.3,30.96,WNW,293,0.0,0.0,93,0.00,,,0.00,WUHU216HW,2013-01-31 15:57:00,
2013-01-31 08:02:00,43.2,41.3,30.96,WNW,293,0.0,0.0,93,0.00,,,0.00,WUHU216HW,2013-01-31 16:02:00,
2013-01-31 08:07:00,43.4,41.5,30.97,WNW,293,0.0,0.0,93,0.00,,,0.00,WUHU216HW,2013-01-31 16:07:00,
2013-01-31 08:12:00,43.2,41.3,30.96,WNW,293,0.0,0.0,93,0.00,,,0.00,WUHU216HW,2013-01-31 16:12:00,
2013-01-31 08:17:00,43.6,41.7,30.96,WNW,293,0.0,0.0,93,0.00,,,0.00,WUHU216HW,2013-01-31 16:17:00,
2013-01-31 08:22:00,43.6,41.7,30.96,WNW,293,0.4,0.4,93,0.00,,,0.00,WUHU216HW,2013-01-31 16:22:00,
2013-01-31 08:27:00,43.9,42.0,30.96,WNW,293,0.4,0.4,93,0.00,,,0.00,WUHU216HW,2013-01-31 16:27:00,
2013-01-31 08:32:00,43.9,42.0,30.96,WNW,293,0.0,0.4,93,0.00,,,0.00,WUHU216HW,2013-01-31 16:32:00,
2013-01-31 08:37:00,43.9,42.0,30.96,WNW,293,0.0,0.0,93,0.00,,,0.00,WUHU216HW,2013-01-31 16:37:00,
2013-01-31 08:42:00,44.3,42.4,30.97,WNW,293,0.0,0.4,93,0.00,,,0.00,WUHU216HW,2013-01-31 16:42:00,
2013-01-31 08:47:00,44.3,42.4,30.96,WNW,293,0.0,0.4,93,0.00,,,0.00,WUHU216HW,2013-01-31 16:47:00,
2013-01-31 08:52:00,44.5,42.6,30.96,WNW,293,0.0,0.0,93,0.00,,,0.00,WUHU216HW,2013-01-31 16:52:00,
2013-01-31 08:57:00,44.5,42.6,30.96,West,270,0.0,0.4,93,0.00,,,0.00,WUHU216HW,2013-01-31 16:57:00,
2013-01-31 09:02:00,44.6,42.8,30.97,West,270,0.0,0.4,93,0.00,,,0.00,WUHU216HW,2013-01-31 17:02:00,
2013-01-31 09:07:00,44.6,42.8,30.97,SW,225,0.0,0.4,93,0.00,,,0.00,WUHU216HW,2013-01-31 17:07:00,
2013-01-31 09:12:00,44.8,42.9,30.97,SW,225,0.0,0.4,93,0.00,,,0.00,WUHU216HW,2013-01-31 17:12:00,
2013-01-31 09:17:00,45.0,43.1,30.97,SW,225,0.0,0.0,93,0.00,,,0.00,WUHU216HW,2013-01-31 17:17:00,
2013-01-31 09:22:00,45.0,43.1,30.97,SW,225,0.0,0.0,93,0.00,,,0.00,WUHU216HW,2013-01-31 17:22:00,
2013-01-31 09:27:00,45.4,43.5,30.96,SW,225,0.0,0.0,93,0.00,,,0.00,WUHU216HW,2013-01-31 17:27:00,
2013-01-31 09:32:00,45.5,43.7,30.97,SW,225,0.0,0.0,93,0.00,,,0.00,WUHU216HW,2013-01-31 17:32:00,
2013-01-31 09:37:00,45.7,43.8,30.96,SW,225,0.0,0.0,93,0.00,,,0.00,WUHU216HW,2013-01-31 17:37:00,
2013-01-31 09:42:00,45.9,44.3,30.97,SW,225,0.0,0.0,94,0.00,,,0.00,WUHU216HW,2013-01-31 17:42:00,
2013-01-31 09:47:00,46.3,44.6,30.97,SW,225,0.4,0.4,94,0.00,,,0.00,WUHU216HW,2013-01-31 17:47:00,
2013-01-31 09:52:00,46.4,44.8,30.97,SW,225,0.0,0.4,94,0.00,,,0.00,WUHU216HW,2013-01-31 17:52:00,
2013-01-31 09:57:00,46.4,44.8,30.97,SW,225,0.0,0.4,94,0.00,,,0.00,WUHU216HW,2013-01-31 17:57:00,
2013-01-31 10:02:00,46.6,45.0,30.97,SW,225,0.0,0.4,94,0.00,,,0.00,WUHU216HW,2013-01-31 18:02:00,
2013-01-31 10:07:00,46.8,45.2,30.97,SW,225,0.0,0.0,94,0.00,,,0.00,WUHU216HW,2013-01-31 18:07:00,
2013-01-31 10:12:00,46.8,45.2,30.97,SW,225,0.0,0.4,94,0.00,,,0.00,WUHU216HW,2013-01-31 18:12:00,
2013-01-31 10:17:00,47.0,45.1,30.97,WSW,248,1.3,1.3,93,0.00,,,0.00,WUHU216HW,2013-01-31 18:17:00,
2013-01-31 10:22:00,47.2,45.5,30.97,South,180,0.9,1.3,94,0.00,,,0.00,WUHU216HW,2013-01-31 18:22:00,
2013-01-31 10:27:00,47.2,45.5,30.97,WSW,248,0.2,0.9,94,0.00,,,0.00,WUHU216HW,2013-01-31 18:27:00,
2013-01-31 10:32:00,47.3,45.7,30.97,South,180,0.9,0.9,94,0.00,,,0.00,WUHU216HW,2013-01-31 18:32:00,
2013-01-31 10:37:00,47.3,45.5,30.96,SSE,158,0.9,1.1,93,0.00,,,0.00,WUHU216HW,2013-01-31 18:37:00,
2013-01-31 10:42:00,47.5,45.6,30.96,South,180,0.7,1.1,93,0.00,,,0.00,WUHU216HW,2013-01-31 18:42:00,
2013-01-31 10:47:00,47.9,46.3,30.96,SSE,158,1.6,1.8,94,0.00,,,0.00,WUHU216HW,2013-01-31 18:47:00,
2013-01-31 10:52:00,48.4,46.8,30.97,SSE,158,1.3,1.8,94,0.00,,,0.00,WUHU216HW,2013-01-31 18:52:00,
2013-01-31 10:57:00,48.8,46.9,30.96,SSE,158,0.7,1.8,93,0.00,,,0.00,WUHU216HW,2013-01-31 18:57:00,
2013-01-31 11:02:00,49.3,47.3,30.96,SW,225,0.0,1.8,93,0.00,,,0.00,WUHU216HW,2013-01-31 19:02:00,
2013-01-31 11:07:00,49.9,47.6,30.96,SSE,158,2.0,3.4,92,0.00,,,0.00,WUHU216HW,2013-01-31 19:07:00,
2013-01-31 11:12:00,50.0,47.7,30.95,SE,135,0.7,3.4,92,0.00,,,0.00,WUHU216HW,2013-01-31 19:12:00,
2013-01-31 11:17:00,50.0,47.4,30.95,SSW,203,0.7,1.8,91,0.00,,,0.00,WUHU216HW,2013-01-31 19:17:00,
2013-01-31 11:22:00,50.2,47.6,30.95,South,180,1.8,1.8,91,0.00,,,0.00,WUHU216HW,2013-01-31 19:22:00,
2013-01-31 11:27:00,50.8,48.2,30.95,SSE,158,0.9,2.5,91,0.00,,,0.00,WUHU216HW,2013-01-31 19:27:00,
2013-01-31 11:32:00,51.1,48.2,30.95,South,180,0.7,2.5,90,0.00,,,0.00,WUHU216HW,2013-01-31 19:32:00,
2013-01-31 11:37:00,51.3,48.2,30.95,SE,135,1.1,1.8,89,0.00,,,0.00,WUHU216HW,2013-01-31 19:37:00,
2013-01-31 11:42:00,51.5,48.3,30.95,SSE,158,1.8,2.5,89,0.00,,,0.00,WUHU216HW,2013-01-31 19:42:00,
2013-01-31 11:47:00,51.5,48.3,30.95,SW,225,0.9,2.5,89,0.00,,,0.00,WUHU216HW,2013-01-31 19:47:00,
2013-01-31 11:52:00,51.8,48.7,30.95,WSW,248,0.7,1.8,89,0.00,,,0.00,WUHU216HW,2013-01-31 19:52:00,
2013-01-31 11:57:00,52.0,48.9,30.95,SSE,158,1.1,2.2,89,0.00,,,0.00,WUHU216HW,2013-01-31 19:57:00,
2013-01-31 12:02:00,52.0,48.5,30.95,South,180,0.4,2.9,88,0.00,,,0.00,WUHU216HW,2013-01-31 20:02:00,
2013-01-31 12:07:00,51.8,48.3,30.94,West,270,0.0,2.9,88,0.00,,,0.00,WUHU216HW,2013-01-31 20:07:00,
2013-01-31 12:12:00,51.8,48.3,30.94,WSW,248,2.0,2.5,88,0.00,,,0.00,WUHU216HW,2013-01-31 20:12:00,
2013-01-31 12:17:00,52.2,48.4,30.94,SSE,158,1.1,2.7,87,0.00,,,0.00,WUHU216HW,2013-01-31 20:17:00,
2013-01-31 12:22:00,52.4,48.2,30.94,SE,135,2.9,2.9,86,0.00,,,0.00,WUHU216HW,2013-01-31 20:22:00,
2013-01-31 12:27:00,52.4,48.2,30.94,West,270,0.4,2.9,86,0.00,,,0.00,WUHU216HW,2013-01-31 20:27:00,
2013-01-31 12:32:00,52.6,48.4,30.94,SSE,158,0.9,2.7,86,0.00,,,0.00,WUHU216HW,2013-01-31 20:32:00,
2013-01-31 12:37:00,52.9,48.5,30.94,ESE,113,1.3,4.7,85,0.00,,,0.00,WUHU216HW,2013-01-31 20:37:00,
2013-01-31 12:42:00,52.9,48.5,30.93,SSE,158,1.1,4.7,85,0.00,,,0.00,WUHU216HW,2013-01-31 20:42:00,
2013-01-31 12:47:00,53.1,48.4,30.93,East,90,0.9,2.2,84,0.00,,,0.00,WUHU216HW,2013-01-31 20:47:00,
2013-01-31 12:52:00,53.1,48.4,30.93,WSW,248,4.5,4.5,84,0.00,,,0.00,WUHU216HW,2013-01-31 20:52:00,
2013-01-31 12:57:00,53.1,48.1,30.92,SE,135,1.3,4.5,83,0.00,,,0.00,WUHU216HW,2013-01-31 20:57:00,
2013-01-31 13:02:00,53.1,48.1,30.93,South,180,4.0,4.0,83,0.00,,,0.00,WUHU216HW,2013-01-31 21:02:00,
2013-01-31 13:07:00,53.3,48.0,30.93,SE,135,1.1,4.0,82,0.00,,,0.00,WUHU216HW,2013-01-31 21:07:00,
2013-01-31 13:12:00,53.5,48.2,30.92,SE,135,2.5,2.7,82,0.00,,,0.00,WUHU216HW,2013-01-31 21:12:00,
2013-01-31 13:17:00,53.3,48.0,30.92,South,180,1.1,2.5,82,0.00,,,0.00,WUHU216HW,2013-01-31 21:17:00,
2013-01-31 13:22:00,53.1,48.1,30.92,SE,135,1.8,2.5,83,0.00,,,0.00,WUHU216HW,2013-01-31 21:22:00,
2013-01-31 13:27:00,53.5,48.4,30.92,SW,225,2.0,2.5,83,0.00,,,0.00,WUHU216HW,2013-01-31 21:27:00,
2013-01-31 13:32:00,53.8,48.8,30.92,WSW,248,2.7,2.7,83,0.00,,,0.00,WUHU216HW,2013-01-31 21:32:00,
2013-01-31 13:37:00,54.2,49.2,30.91,WSW,248,1.1,4.0,83,0.00,,,0.00,WUHU216HW,2013-01-31 21:37:00,
2013-01-31 13:42:00,54.0,48.3,30.91,SSE,158,2.5,4.3,81,0.00,,,0.00,WUHU216HW,2013-01-31 21:42:00,
2013-01-31 13:47:00,54.0,48.3,30.91,SSE,158,2.2,4.3,81,0.00,,,0.00,WUHU216HW,2013-01-31 21:47:00,
2013-01-31 13:52:00,54.0,48.3,30.91,WSW,248,1.6,2.9,81,0.00,,,0.00,WUHU216HW,2013-01-31 21:52:00,
2013-01-31 13:57:00,54.2,48.5,30.90,SSE,158,1.8,2.7,81,0.00,,,0.00,WUHU216HW,2013-01-31 21:57:00,
2013-01-31 14:02:00,54.2,48.5,30.90,WSW,248,3.4,4.7,81,0.00,,,0.00,WUHU216HW,2013-01-31 22:02:00,
2013-01-31 14:07:00,54.2,48.8,30.90,NNW,338,2.2,4.7,82,0.00,,,0.00,WUHU216HW,2013-01-31 22:07:00,
2013-01-31 14:13:00,54.0,48.3,30.90,WSW,248,1.8,4.0,81,0.00,,,0.00,WUHU216HW,2013-01-31 22:13:00,
2013-01-31 14:18:00,54.0,48.3,30.90,South,180,1.6,4.0,81,0.00,,,0.00,WUHU216HW,2013-01-31 22:18:00,
2013-01-31 14:23:00,54.0,48.3,30.90,WSW,248,1.3,3.4,81,0.00,,,0.00,WUHU216HW,2013-01-31 22:23:00,
2013-01-31 14:28:00,54.0,48.3,30.90,WSW,248,1.1,3.4,81,0.00,,,0.00,WUHU216HW,2013-01-31 22:28:00,
2013-01-31 14:33:00,54.0,48.3,30.90,SW,225,3.8,3.8,81,0.00,,,0.00,WUHU216HW,2013-01-31 22:33:00,
2013-01-31 14:38:00,54.0,48.3,30.91,WSW,248,1.6,3.8,81,0.00,,,0.00,WUHU216HW,2013-01-31 22:38:00,
2013-01-31 14:43:00,54.0,48.1,30.91,SSW,203,2.0,2.7,80,0.00,,,0.00,WUHU216HW,2013-01-31 22:43:00,
2013-01-31 14:48:00,53.8,47.9,30.91,West,270,0.7,2.7,80,0.00,,,0.00,WUHU216HW,2013-01-31 22:48:00,
2013-01-31 14:53:00,54.0,48.1,30.91,SSW,203,1.3,2.2,80,0.00,,,0.00,WUHU216HW,2013-01-31 22:53:00,
2013-01-31 14:58:00,53.8,47.9,30.90,SW,225,1.8,3.6,80,0.00,,,0.00,WUHU216HW,2013-01-31 22:58:00,
2013-01-31 15:03:00,53.8,47.9,30.90,West,270,2.2,3.6,80,0.00,,,0.00,WUHU216HW,2013-01-31 23:03:00,
2013-01-31 15:08:00,53.8,47.9,30.90,SW,225,0.4,2.5,80,0.00,,,0.00,WUHU216HW,2013-01-31 23:08:00,
2013-01-31 15:13:00,54.0,48.1,30.90,WSW,248,2.7,2.7,80,0.00,,,0.00,WUHU216HW,2013-01-31 23:13:00,
2013-01-31 15:18:00,54.0,47.7,30.90,West,270,0.7,2.9,79,0.00,,,0.00,WUHU216HW,2013-01-31 23:18:00,
2013-01-31 15:23:00,53.8,47.9,30.90,WSW,248,1.3,2.9,80,0.00,,,0.00,WUHU216HW,2013-01-31 23:23:00,
2013-01-31 15:28:00,53.8,47.9,30.90,NW,315,0.2,2.2,80,0.00,,,0.00,WUHU216HW,2013-01-31 23:28:00,
2013-01-31 15:33:00,53.6,47.7,30.90,SW,225,1.1,2.5,80,0.00,,,0.00,WUHU216HW,2013-01-31 23:33:00,
2013-01-31 15:38:00,53.6,47.3,30.90,SW,225,1.8,2.5,79,0.00,,,0.00,WUHU216HW,2013-01-31 23:38:00,
2013-01-31 15:43:00,53.6,47.3,30.89,West,270,2.7,2.7,79,0.00,,,0.00,WUHU216HW,2013-01-31 23:43:00,
2013-01-31 15:48:00,53.6,47.3,30.90,WSW,248,1.8,3.4,79,0.00,,,0.00,WUHU216HW,2013-01-31 23:48:00,
2013-01-31 15:53:00,53.8,47.5,30.90,SW,225,2.9,3.4,79,0.00,,,0.00,WUHU216HW,2013-01-31 23:53:00,
2013-01-31 15:58:00,54.2,47.8,30.89,WSW,248,1.1,2.9,79,0.00,,,0.00,WUHU216HW,2013-01-31 23:58:00,
2013-01-31 16:03:00,54.4,48.0,30.89,West,270,1.3,3.8,79,0.00,,,0.00,WUHU216HW,2013-02-01 00:03:00,
2013-01-31 16:08:00,54.5,47.8,30.90,West,270,1.1,3.8,78,0.00,,,0.00,WUHU216HW,2013-02-01 00:08:00,
2013-01-31 16:13:00,54.5,47.8,30.90,WSW,248,2.5,2.5,78,0.00,,,0.00,WUHU216HW,2013-02-01 00:13:00,
2013-01-31 16:18:00,54.5,47.8,30.90,WSW,248,2.2,2.5,78,0.00,,,0.00,WUHU216HW,2013-02-01 00:18:00,
2013-01-31 16:23:00,54.4,47.6,30.90,SSW,203,1.6,2.2,78,0.00,,,0.00,WUHU216HW,2013-02-01 00:23:00,
2013-01-31 16:28:00,54.2,47.5,30.89,WSW,248,0.4,2.5,78,0.00,,,0.00,WUHU216HW,2013-02-01 00:28:00,
2013-01-31 16:33:00,54.0,47.4,30.89,WSW,248,0.4,2.5,78,0.00,,,0.00,WUHU216HW,2013-02-01 00:33:00,
2013-01-31 16:38:00,53.6,47.0,30.89,WSW,248,2.5,2.5,78,0.00,,,0.00,WUHU216HW,2013-02-01 00:38:00,
2013-01-31 16:43:00,53.6,47.0,30.89,WSW,248,0.9,2.5,78,0.00,,,0.00,WUHU216HW,2013-02-01 00:43:00,
2013-01-31 16:48:00,53.5,46.8,30.89,SSW,203,0.4,2.0,78,0.00,,,0.00,WUHU216HW,2013-02-01 00:48:00,
2013-01-31 16:53:00,53.3,46.6,30.89,WSW,248,0.0,1.3,78,0.00,,,0.00,WUHU216HW,2013-02-01 00:53:00,
2013-01-31 16:58:00,52.9,46.3,30.89,WSW,248,0.0,1.3,78,0.00,,,0.00,WUHU216HW,2013-02-01 00:58:00,
2013-01-31 17:03:00,52.9,46.3,30.89,West,270,1.1,1.1,78,0.00,,,0.00,WUHU216HW,2013-02-01 01:03:00,
2013-01-31 17:08:00,52.6,46.3,30.89,West,270,0.0,1.1,79,0.00,,,0.00,WUHU216HW,2013-02-01 01:08:00,
2013-01-31 17:13:00,52.6,46.3,30.88,WNW,293,0.7,0.7,79,0.00,,,0.00,WUHU216HW,2013-02-01 01:13:00,
2013-01-31 17:18:00,52.4,46.1,30.88,WNW,293,0.0,0.7,79,0.00,,,0.00,WUHU216HW,2013-02-01 01:18:00,
2013-01-31 17:23:00,52.2,45.9,30.88,WNW,293,0.0,0.4,79,0.00,,,0.00,WUHU216HW,2013-02-01 01:23:00,
2013-01-31 17:28:00,52.0,46.1,30.88,WNW,293,0.0,0.4,80,0.00,,,0.00,WUHU216HW,2013-02-01 01:28:00,
2013-01-31 17:33:00,51.8,45.9,30.88,WNW,293,0.0,0.0,80,0.00,,,0.00,WUHU216HW,2013-02-01 01:33:00,
2013-01-31 17:38:00,51.7,45.7,30.88,WNW,293,0.0,0.0,80,0.00,,,0.00,WUHU216HW,2013-02-01 01:38:00,
2013-01-31 17:43:00,51.5,45.5,30.88,WNW,293,0.0,0.0,80,0.00,,,0.00,WUHU216HW,2013-02-01 01:43:00,
2013-01-31 17:48:00,51.5,45.8,30.88,WNW,293,0.0,0.0,81,0.00,,,0.00,WUHU216HW,2013-02-01 01:48:00,
2013-01-31 17:53:00,51.1,45.5,30.88,WNW,293,0.0,0.0,81,0.00,,,0.00,WUHU216HW,2013-02-01 01:53:00,
2013-01-31 17:58:00,51.1,45.5,30.88,WNW,293,0.0,0.0,81,0.00,,,0.00,WUHU216HW,2013-02-01 01:58:00,
2013-01-31 18:03:00,50.9,45.3,30.88,WNW,293,0.0,0.0,81,0.00,,,0.00,WUHU216HW,2013-02-01 02:03:00,
2013-01-31 18:08:00,50.9,45.3,30.88,WNW,293,0.0,0.0,81,0.00,,,0.00,WUHU216HW,2013-02-01 02:08:00,
2013-01-31 18:31:00,50.4,45.1,30.88,WNW,293,0.0,0.0,82,0.00,,,0.00,WUHU216HW,2013-02-01 02:31:00,
2013-01-31 18:36:00,50.4,45.1,30.88,WNW,293,0.0,0.0,82,0.00,,,0.00,WUHU216HW,2013-02-01 02:36:00,
2013-01-31 18:41:00,50.4,45.4,30.88,WNW,293,0.0,0.0,83,0.00,,,0.00,WUHU216HW,2013-02-01 02:41:00,
2013-01-31 18:46:00,50.4,45.4,30.88,WNW,293,0.7,0.7,83,0.00,,,0.00,WUHU216HW,2013-02-01 02:46:00,
2013-01-31 18:51:00,50.4,45.4,30.88,WNW,293,0.7,0.7,83,0.00,,,0.00,WUHU216HW,2013-02-01 02:51:00,
2013-01-31 19:00:00,50.0,45.4,30.88,West,270,0.4,0.4,84,0.00,,,0.00,WUHU216HW,2013-02-01 03:00:00,
2013-01-31 19:05:00,50.0,45.4,30.88,West,270,0.0,0.7,84,0.00,,,0.00,WUHU216HW,2013-02-01 03:05:00,
2013-01-31 19:09:00,50.0,45.4,30.88,West,270,0.0,0.7,84,0.00,,,0.00,WUHU216HW,2013-02-01 03:09:00,
2013-01-31 19:14:00,49.9,45.2,30.88,WSW,248,0.2,0.4,84,0.00,,,0.00,WUHU216HW,2013-02-01 03:14:00,
2013-01-31 19:19:00,49.7,45.0,30.88,WSW,248,0.0,0.4,84,0.00,,,0.00,WUHU216HW,2013-02-01 03:19:00,
2013-01-31 19:24:00,49.7,45.0,30.88,WSW,248,0.0,0.0,84,0.00,,,0.00,WUHU216HW,2013-02-01 03:24:00,
2013-01-31 19:29:00,49.7,45.3,30.88,WSW,248,0.0,0.0,85,0.00,,,0.00,WUHU216HW,2013-02-01 03:29:00,
2013-01-31 19:35:00,49.5,44.8,30.88,SSW,203,0.4,0.4,84,0.00,,,0.00,WUHU216HW,2013-02-01 03:35:00,
2013-01-31 19:40:00,49.5,44.8,30.88,SSW,203,0.2,0.4,84,0.00,,,0.00,WUHU216HW,2013-02-01 03:40:00,
2013-01-31 19:44:00,49.3,44.7,30.88,SSW,203,0.0,0.4,84,0.00,,,0.00,WUHU216HW,2013-02-01 03:44:00,
2013-01-31 19:49:00,49.3,44.7,30.87,SSW,203,0.0,0.4,84,0.00,,,0.00,WUHU216HW,2013-02-01 03:49:00,
2013-01-31 19:54:00,49.0,44.3,30.87,SSW,203,0.0,0.4,84,0.00,,,0.00,WUHU216HW,2013-02-01 03:54:00,
2013-01-31 19:59:00,48.8,44.1,30.87,SSW,203,0.0,0.4,84,0.00,,,0.00,WUHU216HW,2013-02-01 03:59:00,
2013-01-31 20:04:00,48.6,44.3,30.87,SSW,203,0.0,0.0,85,0.00,,,0.00,WUHU216HW,2013-02-01 04:04:00,
2013-01-31 20:09:00,48.6,44.3,30.87,SSW,203,0.0,0.0,85,0.00,,,0.00,WUHU216HW,2013-02-01 04:09:00,
2013-01-31 20:14:00,48.6,44.3,30.87,SW,225,0.7,0.7,85,0.00,,,0.00,WUHU216HW,2013-02-01 04:14:00,
2013-01-31 20:19:00,48.6,44.3,30.87,SSE,158,0.0,0.7,85,0.00,,,0.00,WUHU216HW,2013-02-01 04:19:00,
2013-01-31 20:24:00,48.4,44.1,30.87,SSW,203,0.0,0.4,85,0.00,,,0.00,WUHU216HW,2013-02-01 04:24:00,
2013-01-31 20:29:00,48.4,44.1,30.87,SW,225,0.4,0.4,85,0.00,,,0.00,WUHU216HW,2013-02-01 04:29:00,
2013-01-31 20:34:00,48.2,43.9,30.87,WSW,248,0.0,0.9,85,0.00,,,0.00,WUHU216HW,2013-02-01 04:34:00,
2013-01-31 20:39:00,48.2,43.9,30.88,SW,225,0.2,0.9,85,0.00,,,0.00,WUHU216HW,2013-02-01 04:39:00,
2013-01-31 20:45:00,47.9,43.6,30.88,SW,225,0.0,0.4,85,0.00,,,0.00,WUHU216HW,2013-02-01 04:45:00,
2013-01-31 20:50:00,47.9,43.6,30.88,SSW,203,0.0,1.1,85,0.00,,,0.00,WUHU216HW,2013-02-01 04:50:00,
2013-01-31 20:55:00,47.9,43.6,30.88,SSW,203,0.0,1.1,85,0.00,,,0.00,WUHU216HW,2013-02-01 04:55:00,
2013-01-31 21:00:00,48.1,44.1,30.88,SSW,203,0.0,0.0,86,0.00,,,0.00,WUHU216HW,2013-02-01 05:00:00,
2013-01-31 21:03:00,48.1,44.1,30.88,SSW,203,0.0,0.0,86,0.00,,,0.00,WUHU216HW,2013-02-01 05:03:00,
2013-01-31 21:08:00,48.2,44.3,30.88,SSW,203,0.0,0.0,86,0.00,,,0.00,WUHU216HW,2013-02-01 05:08:00,
2013-01-31 21:13:00,48.2,44.3,30.88,SSW,203,0.7,0.7,86,0.00,,,0.00,WUHU216HW,2013-02-01 05:13:00,
2013-01-31 21:18:00,48.2,44.3,30.88,South,180,0.0,0.7,86,0.00,,,0.00,WUHU216HW,2013-02-01 05:18:00,
2013-01-31 21:23:00,48.2,44.3,30.88,South,180,0.0,0.4,86,0.00,,,0.00,WUHU216HW,2013-02-01 05:23:00,
2013-01-31 21:28:00,48.2,44.3,30.88,South,180,0.0,0.0,86,0.00,,,0.00,WUHU216HW,2013-02-01 05:28:00,
2013-01-31 21:33:00,48.2,44.6,30.88,South,180,0.0,0.0,87,0.00,,,0.00,WUHU216HW,2013-02-01 05:33:00,
2013-01-31 21:38:00,48.2,44.6,30.88,South,180,0.0,0.0,87,0.00,,,0.00,WUHU216HW,2013-02-01 05:38:00,
2013-01-31 21:43:00,48.2,44.6,30.88,SW,225,0.0,0.4,87,0.00,,,0.00,WUHU216HW,2013-02-01 05:43:00,
2013-01-31 21:48:00,48.2,44.6,30.88,WSW,248,0.2,0.4,87,0.00,,,0.00,WUHU216HW,2013-02-01 05:48:00,
2013-01-31 21:53:00,48.1,44.4,30.88,SSW,203,0.0,0.2,87,0.00,,,0.00,WUHU216HW,2013-02-01 05:53:00,
2013-01-31 21:58:00,48.2,44.6,30.88,South,180,0.4,0.4,87,0.00,,,0.00,WUHU216HW,2013-02-01 05:58:00,
2013-01-31 22:03:00,48.1,44.4,30.88,SSW,203,0.0,0.9,87,0.00,,,0.00,WUHU216HW,2013-02-01 06:03:00,
2013-01-31 22:08:00,48.1,44.4,30.88,SSW,203,0.0,0.9,87,0.00,,,0.00,WUHU216HW,2013-02-01 06:08:00,
2013-01-31 22:13:00,47.9,44.2,30.88,SW,225,0.0,0.2,87,0.00,,,0.00,WUHU216HW,2013-02-01 06:13:00,
2013-01-31 22:18:00,47.9,44.2,30.88,SW,225,0.2,0.4,87,0.00,,,0.00,WUHU216HW,2013-02-01 06:18:00,
2013-01-31 22:23:00,47.7,44.0,30.88,SW,225,0.2,0.9,87,0.00,,,0.00,WUHU216HW,2013-02-01 06:23:00,
2013-01-31 22:28:00,47.7,44.0,30.88,SW,225,0.0,0.9,87,0.00,,,0.00,WUHU216HW,2013-02-01 06:28:00,
2013-01-31 22:33:00,47.5,43.8,30.88,SSW,203,0.0,0.4,87,0.00,,,0.00,WUHU216HW,2013-02-01 06:33:00,
2013-01-31 22:38:00,47.5,43.8,30.88,SSW,203,0.2,0.4,87,0.00,,,0.00,WUHU216HW,2013-02-01 06:38:00,
2013-01-31 22:43:00,47.3,43.7,30.88,South,180,1.1,1.1,87,0.00,,,0.00,WUHU216HW,2013-02-01 06:43:00,
2013-01-31 22:48:00,47.3,44.0,30.88,South,180,0.0,1.1,88,0.00,,,0.00,WUHU216HW,2013-02-01 06:48:00,
2013-01-31 22:53:00,47.3,44.0,30.88,South,180,0.0,0.4,88,0.00,,,0.00,WUHU216HW,2013-02-01 06:53:00,
2013-01-31 22:58:00,47.3,44.0,30.88,South,180,0.0,0.0,88,0.00,,,0.00,WUHU216HW,2013-02-01 06:58:00,
2013-01-31 23:03:00,47.3,44.0,30.89,South,180,0.0,0.0,88,0.00,,,0.00,WUHU216HW,2013-02-01 07:03:00,
2013-01-31 23:08:00,47.3,44.0,30.89,South,180,0.0,0.0,88,0.00,,,0.00,WUHU216HW,2013-02-01 07:08:00,
2013-01-31 23:32:00,47.2,43.8,30.89,SSE,158,0.0,0.0,88,0.00,,,0.00,WUHU216HW,2013-02-01 07:32:00,
2013-01-31 23:37:00,47.2,43.8,30.89,SSE,158,0.0,0.2,88,0.00,,,0.00,WUHU216HW,2013-02-01 07:37:00,
2013-01-31 23:42:00,46.8,43.5,30.89,South,180,0.0,0.2,88,0.00,,,0.00,WUHU216HW,2013-02-01 07:42:00,
2013-01-31 23:47:00,46.6,43.3,30.89,South,180,0.0,0.0,88,0.00,,,0.00,WUHU216HW,2013-02-01 07:47:00,
2013-01-31 23:52:00,46.4,43.1,30.88,South,180,0.0,0.0,88,0.00,,,0.00,WUHU216HW,2013-02-01 07:52:00,
2013-01-31 23:57:00,46.3,42.9,30.88,SW,225,0.7,0.9,88,0.00,,,0.00,WUHU216HW,2013-02-01 07:57:00,